Location: Hopewell Observatory
(38.8698°N, 77.6988°W)
Time: 11:21:59
(UTC-04:00)

Daily predictions for brighter satellites

Satellite Brightness Start Highest point End
(mag) Time Altitude Azimuth Time Altitude Azimuth Time Altitude Azimuth
Cosmos 2366 rocket 4.1 18:35:17 10° S 18:41:30 85° W 18:47:42 10° N
CZ-4 R/B 1.4 18:41:08 10° SSE 18:45:18 71° ENE 18:49:25 10° N
MTI 3.9 18:43:21 10° NNE 18:46:29 50° E 18:49:36 10° S
Meteor 1-28 Rocket 3.1 18:44:05 10° NNE 18:47:52 72° ESE 18:51:36 10° S
Abrixas rocket 4.3 18:46:17 10° NW 18:48:26 16° N 18:50:34 10° NE
IRS-1A Rocket 4.4 18:42:56 10° SSE 18:48:46 72° ENE 18:54:40 10° N
Meteor 2-1 Rocket 4.4 18:48:28 10° S 18:54:17 88° E 19:00:14 10° N
Cosmos 1269 Rocket 4.2 18:49:46 10° S 18:54:52 54° ESE 19:00:01 10° NNE
GRACE-2 4.1 18:53:06 10° SSE 18:55:31 39° E 18:57:56 10° NNE
Aureole 2 Rocket 3.7 18:52:08 10° N 18:55:35 28° ENE 18:59:08 10° SE
YAOGAN 1 2.5 18:52:37 10° SSE 18:56:54 66° ENE 19:01:12 10° N
Cosmos 1626 3.2 18:54:11 10° NNW 18:57:49 49° W 19:01:25 10° S
Iridium 4 Rocket 4.1 18:53:43 10° SSE 18:59:00 43° E 19:04:32 10° NNE
BREEZE-M DEB (TANK) 1.6 18:57:52 10° WSW 19:00:04 51° NNW 19:02:09 10° NE
Cosmos 1315 Rocket 2.8 18:57:00 10° N 19:01:07 79° E 19:05:14 10° SSE
GRACE-1 3.6 18:59:37 10° SSE 19:02:09 57° E 19:04:41 10° N
CZ-4 R/B 4.4 18:58:33 10° SSE 19:02:38 69° ENE 19:06:47 10° N
Cosmos 1484 Rocket 3.7 19:00:20 10° S 19:03:56 50° W 19:07:34 10° NNW
Cosmos 1452 Rocket 4.0 19:01:20 10° NNW 19:06:33 66° WSW 19:11:44 10° S
Cosmos 44 Rocket 3.6 19:02:17 10° SW 19:06:57 66° WNW 19:11:39 10° NNE
Cosmos 2333 4.2 19:02:45 10° NNW 19:08:29 66° ENE 19:14:11 10° SSE
Cosmos 2084 4.1 19:07:32 10° NNW 19:10:55 29° NE 19:13:42 14° ESE
Cosmos 1908 3.4 19:07:05 10° S 19:10:58 76° W 19:14:53 10° N
SPOT 3 Rocket 3.6 19:06:18 10° SSE 19:11:22 57° ENE 19:16:29 10° N
PSLV R/B 3.2 19:09:53 10° WSW 19:12:59 60° SSE 19:15:01 19° E
Cosmos 2221 2.5 19:08:53 10° S 19:13:12 86° E 19:17:35 10° N
Cosmos 1934 Rocket 4.4 19:07:26 10° SSE 19:13:19 42° E 19:19:14 10° NNE
Cosmos 2237 Rocket 3.2 19:09:37 10° N 19:14:22 26° ENE 19:18:22 13° ESE
Cosmos 1000 Rocket 4.5 19:09:42 10° N 19:15:52 61° E 19:21:56 10° SSE
Delta 2 Rocket 4.1 19:12:59 10° W 19:16:49 40° SSW 19:19:54 12° SE
Cosmos 1821 Rocket 4.0 19:10:51 10° S 19:16:53 60° E 19:23:02 10° NNE
Cosmos 921 Rocket 4.0 19:14:00 10° NNW 19:18:18 51° WSW 19:22:28 10° S
Cosmos 2227 Rocket 2.9 19:15:24 10° SSE 19:20:19 32° ESE 19:25:16 10° NE
H-2A R/B 4.0 19:20:16 18° E 19:21:31 21° ENE 19:24:31 10° NNE
Cosmos 2239 Rocket 4.4 19:15:37 10° S 19:21:39 65° E 19:27:45 10° NNE
SKYMED 2 3.7 19:21:24 10° N 19:25:45 81° WNW 19:30:04 10° SSW
Cosmos 2098 Rocket 3.5 19:21:46 10° S 19:26:28 78° E 19:32:30 10° N
SL-16 R/B 3.8 19:24:21 10° NNE 19:27:32 15° NE 19:28:01 15° NE
Cosmos 1300 2.7 19:28:37 10° S 19:32:20 54° E 19:36:05 10° NNE
Cosmos 2360 Rocket 4.2 19:28:41 10° NW 19:33:35 31° WSW 19:38:28 10° SSW
BREEZE-M DEB (TANK) 3.7 19:34:26 10° W 19:35:56 17° SW 19:37:36 10° S
Atlas Centaur 2 4.2 19:36:09 10° SW 19:38:06 13° SSW 19:40:13 10° S
Gbstr 26 Del rocket 3.6 19:33:29 10° NW 19:38:33 90° NE 19:43:46 15° SE
ALOS 2.1 19:34:25 10° SSE 19:39:04 76° ENE 19:43:44 10° N
Cosmos 1980 4.0 19:33:55 10° N 19:39:18 43° ENE 19:43:00 19° SE
FENGYUN 3A 3.6 19:36:03 10° SSE 19:41:26 76° ENE 19:46:51 10° N
Meteor 2-10 3.8 19:38:25 10° S 19:43:25 71° E 19:48:33 10° NNE
SWAS 4.3 19:43:41 10° SSW 19:47:54 71° ESE 19:50:51 20° NNE
Cosmos 2251 Rocket 3.7 19:44:39 10° S 19:49:42 48° ESE 19:54:10 14° NNE
Cosmos 2123 Rocket 3.9 19:43:32 10° N 19:49:45 65° E 19:55:59 10° SSE
COSMOS 2428 3.5 19:45:55 10° NNW 19:51:26 52° WSW 19:56:55 10° S
Cosmos 1605 Rocket 3.9 19:45:33 10° SSE 19:51:29 56° E 19:57:25 10° NNE
Cosmos 2219 4.2 19:47:01 10° SW 19:52:34 48° WNW 19:58:08 10° NNE
Meteor 2-3 Rocket 4.3 19:47:43 10° N 19:52:52 33° ENE 19:53:21 32° E
Cosmos 2333 Rocket 2.1 19:48:31 10° NNW 19:54:18 84° ENE 20:00:03 10° SSE
NOSS 0 Rocket 3.8 19:50:18 10° NNW 19:56:29 78° ENE 20:02:36 10° SSE
Cosmos 2297 Rocket 2.2 19:51:45 10° S 19:57:14 55° ESE 20:00:57 21° NE
Cosmos 1726 3.5 19:54:18 10° SSW 19:57:46 39° W 20:01:15 10° N
Hubble Space Telescope 2.6 19:57:10 10° SW 20:00:01 18° S 20:00:30 18° SSE
USA 267 4.0 20:04:43 30° ESE 20:04:54 30° SE 20:10:28 10° S
Sich 1 3.3 20:01:29 10° NNW 20:05:51 68° W 20:10:13 10° S
Cosmos 2082 3.6 20:02:59 10° S 20:08:39 68° ESE 20:12:12 24° NNE
Thor Agena Rocket 3.5 20:06:58 10° NNE 20:12:03 80° WNW 20:17:05 10° SSW
Cosmos 1331 Rocket 3.9 20:08:07 10° NNW 20:13:22 88° WSW 20:16:38 23° SSE
Resurs 01 Rocket 3.9 20:21:17 13° N 20:21:17 13° N 20:21:45 10° N
Cosmos 2219 Rocket 3.0 20:14:20 10° NW 20:19:43 49° WSW 20:25:05 10° S
FengYun 1-2 T 4.3 20:20:48 10° S 20:26:16 75° WSW 20:31:46 10° NNW
Cosmos 1447 Rocket 4.4 20:20:38 10° N 20:26:57 69° E 20:29:04 43° SSE
BREEZE-M DEB (TANK) 3.5 20:22:30 10° WNW 20:29:50 41° N 20:29:58 41° N
CZ-4C R/B 4.1 20:25:41 10° W 20:30:06 25° NW 20:35:02 10° NNE
Cosmos 2228 Rocket 3.3 20:28:50 10° SSW 20:33:20 69° W 20:34:24 50° NNW
Cosmos 1328 Rocket 4.3 20:30:53 10° SSW 20:35:10 51° W 20:39:27 10° N
Cosmos 1633 Rocket 4.5 20:33:27 10° NNW 20:37:32 37° W 20:41:36 10° SSW
Cosmos 1302 Rocket 4.1 20:38:18 10° NNW 20:42:54 68° NNW 20:42:54 68° NNW
Meteor 1-27 4.4 20:42:07 10° SSW 20:47:48 74° W 20:53:37 10° N
Cosmos 2237 Rocket 3.2 20:53:12 10° NW 20:58:35 44° WSW 21:00:18 34° SSW
MOS 1-B Rocket 4.1 21:03:12 67° W 21:03:12 67° W 21:09:21 10° NNW
Cosmos 2227 Rocket 3.6 20:59:09 10° SW 21:04:16 34° WNW 21:08:05 16° N
SL-16 R/B 3.4 21:06:40 10° NNW 21:09:56 36° NNW 21:09:56 36° NNW
Cosmos 2297 Rocket 4.3 21:37:20 10° WSW 21:41:36 22° NW 21:42:52 20° NW
